Regional Weather Roundup
Issued by NWS

Home | Current Version | Previous Version | Text Only | Print | Product List | Glossary Off
Versions: 1 2 3 4 5 6 7 8 9 10 11 12 13 14 15 16 17 18 19 20 21 22 23 24 25 26 27 28 29 30 31 32 33 34 35 36 37 38 39 40 41 42 43 44 45 46 47 48

000
ASUS45 KBOI 041710
RWRID

IDAHO REGIONAL WEATHER ROUNDUP
NATIONAL WEATHER SERVICE BOISE ID
1100 AM MDT SAT JUL 04 2015

NOTE: "FAIR" INDICATES FEW OR NO CLOUDS BELOW 12000 FEET
WITH NO SIGNIFICANT WEATHER AND/OR OBSTRUCTIONS TO VISIBILITY

IDZ012-014-041800-
SOUTHWEST IDAHO


CITY           SKY/WX    TMP DP  RH WIND       PRES   REMARKS
BOISE          MOSUNNY   85  46  25 W7        29.87S
CALDWELL       MOSUNNY   88  46  23 NW6       29.87S
MOUNTAIN HOME  MOSUNNY   90  40  17 NW13      29.87F
$$

IDZ016-017-041800-
SOUTHCENTRAL IDAHO


CITY           SKY/WX    TMP DP  RH WIND       PRES   REMARKS
BURLEY         MOSUNNY   83  51  33 W9        29.95F
JEROME         SUNNY     84  41  21 SW10      29.96S
TWIN FALLS     MOSUNNY   87  44  22 NW9       29.94F
$$

IDZ019>023-041800-
SOUTHEAST IDAHO


CITY           SKY/WX    TMP DP  RH WIND       PRES   REMARKS
IDAHO FALLS    SUNNY     77  56  48 SW6       29.99F
POCATELLO      SUNNY     84  49  29 SW8       29.98F
REXBURG        SUNNY     80  49  33 S6        29.99F
$$

IDZ006-010-011-018-031-032-041800-
CENTRAL IDAHO MOUNTAINS


CITY           SKY/WX    TMP DP  RH WIND       PRES   REMARKS
MCCALL         SUNNY     79  40  24 CALM      30.00F
HAILEY         MOSUNNY   82  48  30 CALM      30.03F
STANLEY          N/A     74  39  28 NW3       30.13F
SALMON         SUNNY     75  46  35 NW5       29.95F
CHALLIS        SUNNY     78  45  30 NE3       30.03F
$$

IDZ002-004-006-007-026-041800-
NORTHERN IDAHO


CITY           SKY/WX    TMP DP  RH WIND       PRES   REMARKS
LEWISTON       SUNNY     85  49  28 CALM      29.80F
LOWELL           N/A     78  52  40 N3        29.84F
COEUR D`ALENE  SUNNY     82  52  34 SE3       29.83F
MULLAN PASS    SUNNY     72  40  31 N5        30.06S
$$


USA.gov is the U.S. government's official web portal to all federal, state and local government web resources and services.